GW0353 Weather Reports


Display with metric or nautical units.
time (UTC)temp
F
wind
direction
speed
MPH
gust
MPH
rain 1hr
in
rain 24hr
in
rain mn
in
humidity
%
barometer
mb
20260509005559 74 330 1.0 8.0 0.00 0.00 0.00 19 1022.6
20260509005058 74 0 2.0 9.0 0.00 0.00 0.00 19 1022.6
20260509004628 74 295 1.0 10.0 0.00 0.00 0.00 19 1022.5
20260509004058 74 246 2.0 10.0 0.00 0.00 0.00 18 1022.6
20260509003558 75 111 0.0 9.0 0.00 0.00 0.00 19 1022.6
20260509003102 75 96 1.0 9.0 0.00 0.00 0.00 18 1022.6
20260509002558 75 349 1.0 6.0 0.00 0.00 0.00 18 1022.6
20260509002058 76 55 0.0 6.0 0.00 0.00 0.00 18 1022.6
20260509001601 76 113 0.0 6.0 0.00 0.00 0.00 18 1022.8
20260509001058 76 0 0.0 6.0 0.00 0.00 0.00 17 1022.7
20260509000602 76 62 1.0 6.0 0.00 0.00 0.00 18 1022.8
20260508235558 76 314 1.0 10.0 0.00 0.00 0.00 17 1022.7
20260508235058 76 137 1.0 10.0 0.00 0.00 0.00 16 1022.8
20260508234558 76 117 2.0 10.0 0.00 0.00 0.00 17 1022.9
20260508234059 76 117 3.0 10.0 0.00 0.00 0.00 15 1022.9
20260508233558 76 217 2.0 9.0 0.00 0.00 0.00 15 1023.0
20260508233134 76 130 2.0 9.0 0.00 0.00 0.00 15 1022.9
20260508232558 77 238 1.0 6.0 0.00 0.00 0.00 14 1023.0
20260508232058 77 98 1.0 5.0 0.00 0.00 0.00 16 1023.0
20260508231558 77 124 1.0 9.0 0.00 0.00 0.00 15 1023.0
20260508231058 77 30 1.0 9.0 0.00 0.00 0.00 13 1023.0
20260508230558 77 163 2.0 8.0 0.00 0.00 0.00 14 1022.9
20260508230101 77 4 2.0 11.0 0.00 0.00 0.00 13 1022.9
20260508225558 77 215 1.0 11.0 0.00 0.00 0.00 13 1023.0
20260508225058 77 101 1.0 11.0 0.00 0.00 0.00 14 1023.1
20260508224621 77 0 0.0 7.0 0.00 0.00 0.00 11 1023.1
20260508224058 78 44 1.0 7.0 0.00 0.00 0.00 10 1022.9
20260508223559 78 130 2.0 9.0 0.00 0.00 0.00 13 1023.0
20260508223110 78 284 1.0 9.0 0.00 0.00 0.00 11 1023.1
20260508222558 78 289 1.0 8.0 0.00 0.00 0.00 11 1023.1
20260508222059 78 0 1.0 6.0 0.00 0.00 0.00 11 1023.1
20260508221610 78 107 1.0 6.0 0.00 0.00 0.00 12 1023.1
20260508221058 78 32 1.0 6.0 0.00 0.00 0.00 12 1023.1
20260508220607 78 231 2.0 6.0 0.00 0.00 0.00 10 1023.1
20260508220059 78 68 2.0 7.0 0.00 0.00 0.00 12 1022.9
20260508215558 78 105 3.0 7.0 0.00 0.00 0.00 12 1023.1
20260508215058 78 182 3.0 7.0 0.00 0.00 0.00 11 1023.1
20260508214559 78 152 3.0 6.0 0.00 0.00 0.00 9 1023.1
20260508214058 78 117 1.0 5.0 0.00 0.00 0.00 10 1023.2
20260508213559 78 252 2.0 9.0 0.00 0.00 0.00 11 1023.4
20260508213057 78 210 0.0 9.0 0.00 0.00 0.00 9 1023.3
20260508212558 79 172 3.0 8.0 0.00 0.00 0.00 10 1023.2
20260508212057 79 254 1.0 5.0 0.00 0.00 0.00 12 1023.3
20260508211555 78 0 2.0 9.0 0.00 0.00 0.00 9 1023.4
20260508211058 78 226 3.0 9.0 0.00 0.00 0.00 10 1023.6
20260508210558 78 61 2.0 9.0 0.00 0.00 0.00 12 1023.7
20260508210058 78 292 2.0 11.0 0.00 0.00 0.00 10 1023.6
20260508205559 78 169 3.0 11.0 0.00 0.00 0.00 9 1023.7
20260508205058 78 284 3.0 8.0 0.00 0.00 0.00 10 1023.8
20260508204558 79 243 2.0 8.0 0.00 0.00 0.00 10 1023.8
20260508204101 79 158 1.0 8.0 0.00 0.00 0.00 10 1023.9
20260508203558 79 240 2.0 8.0 0.00 0.00 0.00 9 1023.9
20260508203100 79 207 1.0 5.0 0.00 0.00 0.00 10 1023.8
20260508202559 78 270 2.0 6.0 0.00 0.00 0.00 10 1023.9
20260508202058 78 60 1.0 6.0 0.00 0.00 0.00 11 1023.9
20260508201558 77 288 1.0 6.0 0.00 0.00 0.00 10 1024.0
20260508201058 77 306 1.0 6.0 0.00 0.00 0.00 11 1023.9
20260508200558 77 55 1.0 6.0 0.00 0.00 0.00 12 1024.0
20260508200111 75 313 1.0 8.0 0.00 0.00 0.00 12 1024.1
20260508195558 75 54 2.0 8.0 0.00 0.00 0.00 11 1024.1
20260508195058 75 71 4.0 7.0 0.00 0.00 0.00 12 1024.1
20260508194605 75 51 2.0 8.0 0.00 0.00 0.00 11 1024.1
20260508194057 75 34 3.0 8.0 0.00 0.00 0.00 13 1024.2
20260508193558 75 258 3.0 7.0 0.00 0.00 0.00 12 1024.3
20260508193105 75 307 3.0 10.0 0.00 0.00 0.00 12 1024.3
20260508192600 75 354 3.0 10.0 0.00 0.00 0.00 13 1024.3
20260508192059 74 56 4.0 10.0 0.00 0.00 0.00 12 1024.3
20260508191557 74 264 3.0 7.0 0.00 0.00 0.00 14 1024.4
20260508191058 74 43 3.0 7.0 0.00 0.00 0.00 13 1024.5
20260508190559 74 56 2.0 7.0 0.00 0.00 0.00 13 1024.6
20260508190132 73 358 3.0 8.0 0.00 0.00 0.00 12 1024.5
20260508185557 73 30 3.0 8.0 0.00 0.00 0.00 13 1024.4
20260508185058 73 358 4.0 8.0 0.00 0.00 0.00 12 1024.5
20260508184559 74 44 2.0 5.0 0.00 0.00 0.00 14 1024.6
20260508184100 74 333 2.0 6.0 0.00 0.00 0.00 13 1024.7
20260508183557 73 357 1.0 7.0 0.00 0.00 0.00 16 1024.7
20260508183103 71 20 4.0 7.0 0.00 0.00 0.00 16 1024.8
20260508182557 72 43 3.0 8.0 0.00 0.00 0.00 17 1025.0
20260508182058 72 55 2.0 8.0 0.00 0.00 0.00 16 1024.9
20260508181558 72 39 3.0 7.0 0.00 0.00 0.00 15 1025.0
20260508181058 72 27 1.0 5.0 0.00 0.00 0.00 15 1025.0
20260508180558 71 287 2.0 7.0 0.00 0.00 0.00 15 1024.9
20260508180104 70 77 2.0 7.0 0.00 0.00 0.00 17 1025.0
20260508175558 69 63 3.0 7.0 0.00 0.00 0.00 19 1025.2
20260508175101 69 87 2.0 10.0 0.00 0.00 0.00 19 1025.2
20260508174612 69 70 3.0 10.0 0.00 0.00 0.00 17 1025.3
20260508174057 69 32 1.0 6.0 0.00 0.00 0.00 18 1025.4
20260508173558 68 23 3.0 6.0 0.00 0.00 0.00 17 1025.5
20260508173059 70 55 2.0 4.0 0.00 0.00 0.00 19 1025.5
20260508172603 70 348 2.0 5.0 0.00 0.00 0.00 20 1025.4
20260508172058 69 30 2.0 5.0 0.00 0.00 0.00 21 1025.3
20260508171601 69 46 0.0 4.0 0.00 0.00 0.00 21 1025.5
20260508171100 68 27 1.0 4.0 0.00 0.00 0.00 23 1025.3
20260508170558 67 0 0.0 4.0 0.00 0.00 0.00 21 1025.6
20260508170059 66 333 2.0 5.0 0.00 0.00 0.00 22 1025.5
20260508165558 65 66 2.0 5.0 0.00 0.00 0.00 24 1025.5
20260508165058 65 44 1.0 5.0 0.00 0.00 0.00 24 1025.6
20260508164556 64 337 1.0 7.0 0.00 0.00 0.00 25 1025.5
20260508164057 62 52 4.0 7.0 0.00 0.00 0.00 28 1025.6
20260508163601 62 56 4.0 7.0 0.00 0.00 0.00 29 1025.6
20260508163111 62 60 1.0 4.0 0.00 0.00 0.00 33 1025.6
20260508162558 62 342 2.0 4.0 0.00 0.00 0.00 32 1025.6
20260508162101 61 46 1.0 4.0 0.00 0.00 0.00 34 1025.7
20260508161559 61 46 1.0 3.0 0.00 0.00 0.00 38 1025.8
20260508161104 61 50 1.0 4.0 0.00 0.00 0.00 35 1025.7
20260508160600 60 63 0.0 4.0 0.00 0.00 0.00 39 1025.8
20260508160115 58 74 2.0 4.0 0.00 0.00 0.00 40 1025.8
20260508155558 58 55 1.0 4.0 0.00 0.00 0.00 43 1025.9
20260508155058 57 51 1.0 4.0 0.00 0.00 0.00 44 1025.8
20260508154603 56 78 2.0 4.0 0.00 0.00 0.00 43 1025.8
20260508154058 56 82 2.0 3.0 0.00 0.00 0.00 49 1025.8
20260508153601 54 82 2.0 2.0 0.00 0.00 0.00 59 1025.8
20260508153058 54 72 0.0 1.0 0.00 0.00 0.00 65 1025.8
20260508152559 53 0 0.0 3.0 0.00 0.00 0.00 67 1025.7
20260508152059 52 82 1.0 3.0 0.00 0.00 0.00 69 1025.7
20260508151602 50 43 0.0 3.0 0.00 0.00 0.00 71 1025.7
20260508151059 49 64 0.0 3.0 0.00 0.00 0.00 70 1025.7
20260508150557 49 0 0.0 1.0 0.00 0.00 0.00 73 1025.7
20260508150057 48 0 0.0 1.0 0.00 0.00 0.00 74 1025.8
20260508145601 47 0 0.0 0.0 0.00 0.00 0.00 76 1026.0
20260508145102 46 0 0.0 0.0 0.00 0.00 0.00 78 1026.0
20260508144556 45 0 0.0 0.0 0.00 0.00 0.00 78 1025.9
20260508144057 45 0 0.0 0.0 0.00 0.00 0.00 79 1025.8
20260508143558 45 0 0.0 0.0 0.00 0.00 0.00 80 1025.7
20260508143101 44 0 0.0 0.0 0.00 0.00 0.00 80 1025.8
20260508142558 43 0 0.0 0.0 0.00 0.00 0.00 81 1025.7
20260508142100 43 0 0.0 0.0 0.00 0.00 0.00 80 1025.7
20260508141559 43 0 0.0 0.0 0.00 0.00 0.00 81 1025.7
20260508141058 42 0 0.0 0.0 0.00 0.00 0.00 81 1025.6
20260508140558 41 0 0.0 0.0 0.00 0.00 0.00 84 1025.6
20260508140110 40 0 0.0 0.0 0.00 0.00 0.00 84 1025.5
20260508135558 39 0 0.0 0.0 0.00 0.00 0.00 90 1025.5
20260508135058 37 0 0.0 0.0 0.00 0.00 0.00 92 1025.5
20260508134557 35 0 0.0 0.0 0.00 0.00 0.00 92 1025.4
20260508134057 34 0 0.0 0.0 0.00 0.00 0.00 92 1025.3
20260508133601 34 0 0.0 0.0 0.00 0.00 0.00 91 1025.5
20260508133100 34 0 0.0 0.0 0.00 0.00 0.00 90 1025.3
20260508132557 34 0 0.0 0.0 0.00 0.00 0.00 90 1025.3
20260508132058 34 0 0.0 1.0 0.00 0.00 0.00 91 1025.3
20260508131600 34 0 0.0 1.0 0.00 0.00 0.00 90 1025.2
20260508131058 34 168 0.0 0.0 0.00 0.00 0.00 90 1025.3
20260508130602 34 0 0.0 0.0 0.00 0.00 0.00 89 1025.2
20260508130106 35 0 0.0 0.0 0.00 0.00 0.00 90 1025.1
20260508125558 35 0 0.0 0.0 0.00 0.00 0.00 89 1025.3
20260508125058 35 0 0.0 1.0 0.00 0.00 0.00 90 1025.3
20260508124603 35 0 0.0 1.0 0.00 0.00 0.00 90 1025.3
20260508124058 35 174 0.0 1.0 0.00 0.00 0.00 87 1025.3
20260508123558 35 209 0.0 2.0 0.00 0.00 0.00 88 1025.3
20260508123100 35 0 0.0 2.0 0.00 0.00 0.00 88 1025.3
20260508122557 35 183 0.0 1.0 0.00 0.00 0.00 87 1025.3
20260508122100 36 0 0.0 0.0 0.00 0.00 0.00 90 1025.3
20260508121629 36 0 0.0 0.0 0.00 0.00 0.00 90 1025.2
20260508121058 36 0 0.0 0.0 0.00 0.00 0.00 90 1025.2
20260508120556 36 0 0.0 0.0 0.00 0.00 0.00 88 1025.0
20260508120057 36 0 0.0 0.0 0.00 0.00 0.00 86 1025.1
20260508115557 36 0 0.0 2.0 0.00 0.00 0.00 86 1025.1
20260508115059 36 0 0.0 2.0 0.00 0.00 0.00 86 1025.1
20260508114555 36 0 1.0 2.0 0.00 0.00 0.00 86 1025.1
20260508114057 37 0 0.0 1.0 0.00 0.00 0.00 85 1025.1
20260508113559 37 0 0.0 1.0 0.00 0.00 0.00 88 1025.2
20260508113104 36 168 0.0 1.0 0.00 0.00 0.00 84 1025.1
20260508112557 37 0 0.0 1.0 0.00 0.00 0.00 85 1025.2
20260508112058 37 0 0.0 1.0 0.00 0.00 0.00 86 1025.0
20260508111607 38 0 0.0 1.0 0.00 0.00 0.00 88 1025.1
20260508111059 37 172 0.0 1.0 0.00 0.00 0.00 84 1025.1
20260508110559 37 181 0.0 1.0 0.00 0.00 0.00 87 1025.3
20260508110059 37 0 0.0 0.0 0.00 0.00 0.00 83 1025.2
20260508105557 38 0 0.0 0.0 0.00 0.00 0.00 85 1025.3
20260508105057 38 0 0.0 0.0 0.00 0.00 0.00 86 1025.4
20260508104604 38 0 0.0 0.0 0.00 0.00 0.00 84 1025.3
20260508104057 38 0 0.0 0.0 0.00 0.00 0.00 81 1025.4
20260508103556 38 0 0.0 0.0 0.00 0.00 0.00 83 1025.4
20260508103057 38 0 0.0 1.0 0.00 0.00 0.00 85 1025.5
20260508102557 38 0 0.0 2.0 0.00 0.00 0.00 83 1025.5
20260508102101 38 0 0.0 2.0 0.00 0.00 0.00 81 1025.3
20260508101557 39 0 0.0 0.0 0.00 0.00 0.00 81 1025.5
20260508101058 39 0 0.0 0.0 0.00 0.00 0.00 82 1025.3
20260508100601 39 0 0.0 1.0 0.00 0.00 0.00 81 1025.4
20260508095558 40 0 0.0 0.0 0.00 0.00 0.00 79 1025.5
20260508095105 41 0 0.0 2.0 0.00 0.00 0.00 79 1025.3
20260508094607 41 0 0.0 2.0 0.00 0.00 0.00 80 1025.4
20260508094055 41 0 0.0 2.0 0.00 0.00 0.00 81 1025.3
20260508093555 41 0 0.0 1.0 0.00 0.00 0.00 79 1025.3
20260508093100 41 181 0.0 1.0 0.00 0.00 0.00 80 1025.4
20260508092558 42 0 0.0 0.0 0.00 0.00 0.00 78 1025.3
20260508092057 42 0 0.0 1.0 0.00 0.00 0.00 79 1025.4
20260508091606 43 0 0.0 1.0 0.00 0.00 0.00 79 1025.3
20260508091057 42 181 0.0 2.0 0.00 0.00 0.00 81 1025.2
20260508090557 42 0 0.0 2.0 0.00 0.00 0.00 78 1025.3
20260508090111 43 181 0.0 2.0 0.00 0.00 0.00 77 1025.3
20260508085557 43 0 0.0 0.0 0.00 0.00 0.00 78 1025.3
20260508085056 43 0 0.0 1.0 0.00 0.00 0.00 77 1025.3
20260508084607 43 0 0.0 1.0 0.00 0.00 0.00 78 1025.5
20260508084058 43 0 0.0 1.0 0.00 0.00 0.00 79 1025.5
20260508083558 44 0 0.0 0.0 0.00 0.00 0.00 76 1025.5
20260508083055 45 0 0.0 0.0 0.00 0.00 0.00 77 1025.7
20260508082559 45 0 0.0 2.0 0.00 0.00 0.00 79 1025.6
20260508082055 44 0 1.0 2.0 0.00 0.00 0.00 79 1025.7
20260508081610 44 195 0.0 2.0 0.00 0.00 0.00 76 1025.7
20260508081059 44 169 0.0 2.0 0.00 0.00 0.00 75 1025.9
20260508080555 45 0 0.0 0.0 0.00 0.00 0.00 77 1025.8
20260508080101 45 0 0.0 0.0 0.00 0.00 0.00 78 1025.8
20260508075559 45 0 0.0 0.0 0.00 0.00 0.00 76 1025.7
20260508075056 46 0 0.0 0.0 0.00 0.00 0.00 75 1025.8
20260508074558 46 0 0.0 0.0 0.00 0.00 0.00 76 1025.8
20260508074059 46 0 0.0 1.0 0.00 0.00 0.00 77 1025.7
20260508073559 46 0 0.0 1.0 0.00 0.00 0.00 75 1025.7
20260508073107 46 210 0.0 0.0 0.00 0.00 0.00 77 1025.9
20260508072558 47 0 0.0 0.0 0.00 0.00 0.00 74 1025.9
20260508072058 47 0 0.0 0.0 0.00 0.00 0.00 76 1025.9
20260508071622 47 0 0.0 0.0 0.00 0.00 0.00 76 1025.8
20260508071059 48 0 0.0 0.0 0.00 0.00 0.00 76 1025.8
20260508070559 48 0 0.0 0.0 0.00 0.00 0.00 76 1025.8
20260508065558 49 0 0.0 0.0 0.00 0.00 0.00 77 1025.9
20260508065059 49 0 0.0 0.0 0.00 0.00 0.00 76 1025.9
20260508064556 50 0 0.0 0.0 0.00 0.00 0.00 74 1025.8
20260508064059 50 0 0.0 2.0 0.00 0.00 0.00 74 1025.8
20260508063559 51 0 0.0 2.0 0.00 0.00 0.00 74 1025.6
20260508063058 51 93 0.0 2.0 0.00 0.00 0.00 75 1025.5
20260508062558 51 149 0.0 1.0 0.00 0.00 0.00 74 1025.6
20260508062059 52 0 0.0 4.0 0.00 0.00 0.00 72 1025.3
20260508061559 52 0 1.0 4.0 0.00 0.00 0.00 73 1025.4
20260508061100 52 55 2.0 5.0 0.00 0.00 0.00 72 1025.4
20260508060559 52 124 2.0 5.0 0.00 0.00 0.00 73 1025.3
20260508060058 52 57 3.0 5.0 0.00 0.00 0.00 73 1025.3
20260508055600 52 0 1.0 3.0 0.00 0.00 0.00 71 1025.5
20260508055059 52 57 2.0 3.0 0.00 0.00 0.00 72 1025.5
20260508054612 52 53 1.0 3.0 0.00 0.00 0.00 72 1025.6
20260508054102 52 0 1.0 2.0 0.00 0.00 0.00 70 1025.5
20260508053602 52 0 0.0 0.0 0.00 0.00 0.00 69 1025.5
20260508053059 53 0 0.0 0.0 0.00 0.00 0.00 69 1025.6
20260508052559 53 0 0.0 0.0 0.00 0.00 0.00 68 1025.5
20260508052058 54 0 0.0 0.0 0.00 0.00 0.00 66 1025.6
20260508051558 54 0 0.0 0.0 0.00 0.00 0.00 68 1025.6
20260508051059 54 0 0.0 2.0 0.00 0.00 0.00 67 1025.6
20260508050559 54 0 0.0 2.0 0.00 0.00 0.00 62 1025.6
20260508045559 56 283 0.0 1.0 0.00 0.00 0.00 62 1025.7
20260508045059 56 0 0.0 3.0 0.00 0.00 0.00 62 1025.7
20260508044603 56 0 0.0 4.0 0.00 0.00 0.00 62 1025.7
20260508044058 56 0 1.0 4.0 0.00 0.00 0.00 62 1025.5
20260508043557 56 0 1.0 4.0 0.00 0.00 0.00 61 1025.7
20260508043100 57 0 0.0 5.0 0.00 0.00 0.00 59 1025.5
20260508042559 57 58 0.0 5.0 0.00 0.00 0.00 58 1025.5
20260508042057 57 174 1.0 9.0 0.00 0.00 0.00 58 1025.3
20260508041557 58 0 3.0 9.0 0.00 0.00 0.00 58 1025.2
20260508041057 58 83 0.0 4.0 0.00 0.00 0.00 57 1025.1
20260508040557 58 233 0.0 4.0 0.00 0.00 0.00 56 1025.1
20260508040101 58 54 2.0 4.0 0.00 0.00 0.00 55 1024.8
20260508035556 58 137 0.0 5.0 0.00 0.00 0.00 56 1024.9
20260508035057 58 156 1.0 7.0 0.00 0.00 0.00 55 1024.7
20260508034555 58 112 3.0 7.0 0.00 0.00 0.00 53 1024.6
20260508034056 59 0 2.0 4.0 0.00 0.00 0.00 52 1024.5
20260508033557 59 178 0.0 4.0 0.00 0.00 0.00 51 1024.4
20260508033115 59 0 1.0 13.0 0.00 0.00 0.00 51 1024.2
20260508032555 59 58 6.0 13.0 0.00 0.00 0.00 50 1024.0
20260508032100 59 51 6.0 9.0 0.00 0.00 0.00 49 1023.9
20260508031556 59 150 1.0 2.0 0.00 0.00 0.00 44 1024.0
20260508031057 60 0 0.0 2.0 0.00 0.00 0.00 42 1023.8
20260508030557 60 0 0.0 2.0 0.00 0.00 0.00 42 1023.8
20260508030108 61 0 1.0 2.0 0.00 0.00 0.00 41 1023.7
20260508025557 62 0 0.0 2.0 0.00 0.00 0.00 40 1023.7
20260508025058 63 0 0.0 3.0 0.00 0.00 0.00 39 1023.6
20260508024619 63 0 0.0 4.0 0.00 0.00 0.00 39 1023.7
20260508024059 63 260 1.0 5.0 0.00 0.00 0.00 39 1023.6
20260508023556 64 109 0.0 6.0 0.00 0.00 0.00 39 1023.5
20260508023055 64 278 3.0 6.0 0.00 0.00 0.00 38 1023.5
20260508022559 64 271 1.0 6.0 0.00 0.00 0.00 37 1023.4
20260508022056 65 294 1.0 5.0 0.00 0.00 0.00 38 1023.3
20260508021558 65 286 1.0 6.0 0.00 0.00 0.00 38 1023.3
20260508021056 65 257 0.0 6.0 0.00 0.00 0.00 37 1023.3
20260508020557 66 260 0.0 6.0 0.00 0.00 0.00 37 1023.3
20260508020111 66 271 1.0 6.0 0.00 0.00 0.00 36 1023.2
20260508015558 67 48 1.0 6.0 0.00 0.00 0.00 35 1023.2
20260508015100 67 0 0.0 6.0 0.00 0.00 0.00 35 1023.2
20260508014613 67 52 1.0 7.0 0.00 0.00 0.00 35 1023.2
20260508014058 68 108 2.0 7.0 0.00 0.00 0.00 34 1023.2
20260508013557 69 0 1.0 6.0 0.00 0.00 0.00 33 1023.2
20260508013107 70 232 2.0 6.0 0.00 0.00 0.00 31 1023.1
20260508012557 70 117 0.0 5.0 0.00 0.00 0.00 32 1023.3
20260508012057 70 16 1.0 7.0 0.00 0.00 0.00 31 1023.3
20260508011603 70 0 0.0 7.0 0.00 0.00 0.00 31 1023.3
20260508011102 71 45 2.0 8.0 0.00 0.00 0.00 31 1023.2
20260508010557 71 34 2.0 11.0 0.00 0.00 0.00 31 1023.1
20260508010105 71 250 1.0 12.0 0.00 0.00 0.00 31 1023.2